Theta_e
301 302 302 302 301 303 304 303 304 305 305 306 307 308 309 309 309 310 309 311 312 312 313 314 314 315 316 315 316 318 319 320 322 323 323 322 323 322 322 321 320 320 320 320 321 320 320 319 320 320 321 321 321 321 320 320 320 319 319 318 317 317 316 313 311 310 313 313 313 313 311 308 306 305 307 308 306 307 306 309 309 309 309 309 307
302 303 301 302 301 303 303 302 302 302 303 304 305 306 307 308 308 306 307 310 308 310 311 313 313 314 314 315 316 316 318 319 320 321 321 322 322 322 322 321 320 320 320 319 320 320 320 319 319 320 321 320 321 320 320 320 320 318 318 317 317 317 317 315 313 312 310 308 311 313 314 312 312 306 309 308 308 305 307 307 306 307 308 305 304
302 301 301 301 301 301 301 302 302 300 301 303 303 305 306 306 305 305 307 307 307 308 309 310 311 311 312 313 314 315 316 317 318 319 320 320 320 321 321 321 320 319 319 319 320 320 319 319 319 320 321 320 320 320 321 320 320 319 318 318 317 317 317 317 314 311 311 311 311 310 311 310 311 309 306 307 309 308 307 306 307 305 305 304 304
301 301 300 300 300 299 300 301 299 300 300 302 302 303 304 304 303 303 304 304 305 306 305 307 307 308 309 310 311 312 313 314 315 317 318 319 319 320 320 320 320 320 320 319 319 319 319 319 319 319 320 319 319 319 320 320 319 318 317 318 317 317 317 317 316 314 313 311 308 310 310 311 308 308 309 306 306 304 305 306 305 305 303 301 303
301 301 298 299 299 298 299 297 297 299 300 301 301 302 301 301 301 301 302 302 304 304 304 302 304 305 307 308 309 309 311 312 313 314 315 317 318 319 319 320 320 320 320 320 313 319 318 318 319 319 318 317 317 317 318 317 318 317 317 317 316 316 316 316 315 315 313 311 310 306 309 310 311 309 309 308 303 300 297 301 303 304 302 300 299
299 299 299 297 299 297 297 294 295 297 298 298 299 300 300 299 300 301 300 302 302 302 303 303 303 304 305 306 307 308 309 310 311 312 314 315 316 317 317 318 318 319 319 319 319 318 318 318 318 318 318 317 317 317 317 317 317 317 316 316 316 315 315 315 314 314 313 313 312 310 303 307 302 304 303 306 306 304 299 297 295 296 297 297 297
296 297 297 294 296 296 296 296 296 295 296 297 297 296 297 296 296 298 299 297 299 301 300 301 302 302 304 304 306 307 308 308 310 311 312 314 315 315 316 317 317 318 318 318 318 318 318 318 317 317 317 317 317 317 317 317 317 316 315 316 316 314 313 313 313 313 313 312 311 312 309 305 308 308 303 303 306 307 306 300 297 291 290 294 297
293 293 293 293 293 296 296 296 295 296 296 295 296 295 295 295 296 296 293 296 297 298 300 301 302 300 302 303 304 305 306 307 308 309 311 312 313 313 315 315 316 316 316 317 317 317 317 317 317 317 317 317 317 317 317 317 317 316 316 315 315 314 313 313 312 312 311 311 311 310 309 308 303 300 294 295 296 297 298 302 303 297 295 292 292
290 290 290 291 294 294 295 295 296 296 295 295 295 296 296 295 295 294 293 294 296 296 298 299 299 299 299 300 302 303 304 306 307 308 308 310 312 313 314 314 314 314 315 315 315 316 316 316 316 317 314 307 305 307 309 310 317 315 315 315 313 313 313 312 312 311 311 311 310 311 309 308 308 306 301 299 302 306 299 297 301 299 297 293 291
290 291 291 292 293 293 293 292 293 293 293 294 294 294 294 294 293 293 294 293 293 294 294 295 295 297 298 299 299 301 303 305 301 300 301 307 310 312 312 312 312 312 312 313 314 314 315 315 314 304 302 300 300 301 302 303 304 313 317 315 313 313 312 312 311 311 311 310 309 309 306 305 305 305 305 304 304 298 295 296 300 293 288 290 290
292 290 290 290 290 291 292 292 292 291 292 292 293 293 294 294 293 293 293 293 293 293 292 293 294 294 295 296 297 299 301 302 298 300 301 300 303 307 310 311 312 311 311 312 312 312 313 313 314 308 302 299 301 299 300 301 301 301 303 306 307 314 312 312 311 311 309 309 310 309 309 308 307 304 304 303 297 301 301 297 301 294 294 295 295
293 292 292 291 290 290 289 289 289 290 291 292 292 292 291 291 292 292 292 292 293 291 291 292 293 293 294 294 295 296 298 296 298 298 299 299 299 302 306 308 310 310 311 311 312 312 312 312 313 314 314 313 313 310 303 299 299 300 301 301 302 303 306 311 311 310 310 309 309 309 309 309 309 307 305 300 300 296 297 296 297 296 295 295 293
289 289 288 288 288 288 288 287 287 287 288 289 290 290 290 291 291 291 291 291 289 291 292 292 293 293 292 293 294 295 295 296 297 297 297 298 298 298 303 305 307 308 309 311 312 312 312 312 312 314 315 302 303 311 314 310 299 298 299 299 299 301 303 304 305 313 314 310 309 309 309 309 308 306 304 304 301 300 297 295 295 295 297 296 294
283 282 283 283 284 284 285 285 285 286 286 287 287 288 288 289 289 289 289 289 289 290 290 291 291 291 292 291 292 294 294 294 296 296 296 297 297 297 300 302 304 305 307 308 310 311 312 312 312 312 313 312 311 311 312 312 311 305 303 304 306 303 299 300 301 300 304 312 311 309 310 307 308 307 301 302 301 301 297 296 294 294 293 295 294
281 281 281 282 282 282 283 283 284 284 285 286 286 287 287 287 288 288 288 289 290 290 291 291 291 291 290 290 290 292 294 294 294 295 295 296 297 296 298 300 301 302 304 305 307 308 310 311 312 312 313 313 311 309 310 310 311 309 307 307 307 308 308 306 306 307 306 309 313 313 313 309 309 307 303 303 305 305 303 301 298 297 291 287 287
280 281 281 282 282 282 283 283 284 285 285 286 286 286 287 286 287 287 287 288 288 288 288 288 289 290 290 289 289 290 293 293 293 294 294 295 296 295 295 297 298 299 301 302 303 305 307 309 310 311 312 312 306 301 302 308 310 309 308 307 307 307 308 304 304 304 306 309 309 309 309 305 303 305 302 302 301 294 290 290 290 289 290 290 290
279 280 280 281 282 282 283 283 284 285 286 286 286 286 286 286 286 286 286 287 287 287 288 288 289 289 289 289 289 290 291 292 292 293 294 294 294 292 293 294 296 297 298 299 301 303 304 306 307 309 310 311 304 303 300 299 307 307 307 306 307 306 306 306 300 299 298 297 298 301 302 301 301 301 299 299 296 294 292 291 290 290 290 289 288
278 278 279 280 281 282 283 284 284 285 285 285 285 285 285 285 285 285 285 286 286 287 287 288 288 288 288 289 289 289 291 291 291 292 293 294 293 292 292 293 294 296 296 298 299 300 301 294 295 304 306 307 303 300 299 298 304 305 305 304 300 299 301 297 294 292 292 293 294 295 296 297 297 298 297 297 295 294 296 296 291 291 291 291 292
276 276 277 279 280 281 282 283 284 285 285 285 285 284 284 285 285 285 285 285 286 286 286 286 287 287 286 287 287 288 289 289 290 291 292 293 292 290 291 292 293 294 295 296 297 297 299 295 293 295 299 301 301 300 298 297 303 304 305 303 301 300 302 295 294 291 291 291 290 291 291 291 293 295 293 294 293 293 297 296 291 291 292 289 286
275 276 277 277 279 280 281 283 284 284 284 284 283 284 284 284 284 284 284 284 285 285 285 285 285 286 286 285 287 287 287 288 289 291 291 292 293 291 291 292 292 294 294 294 294 294 295 296 295 296 296 295 296 297 298 297 301 304 304 303 301 301 302 293 293 295 293 294 293 292 291 289 288 289 290 291 290 289 289 291 292 292 290 288 285
274 275 276 277 278 279 281 283 284 284 284 284 284 284 284 283 283 283 283 283 283 283 284 284 284 285 285 285 285 286 286 287 287 289 290 292 292 292 292 293 294 294 294 293 294 294 295 295 295 294 295 295 295 295 296 296 296 302 304 303 303 301 296 293 291 290 293 291 289 288 287 287 288 288 288 287 288 288 288 288 289 289 289 286 285
274 274 275 276 279 281 283 284 285 285 285 284 283 283 284 284 283 283 282 281 281 282 282 283 283 284 284 284 284 285 285 285 285 286 288 289 291 292 291 292 293 293 293 293 294 294 294 295 295 294 293 294 295 295 296 296 295 294 299 299 299 297 294 292 291 290 290 288 288 287 287 287 286 286 287 287 286 286 287 287 287 287 287 287 286
273 274 275 278 280 282 283 283 284 285 284 283 283 282 283 283 282 282 281 280 280 279 280 281 281 282 283 284 284 285 285 284 283 282 284 286 288 289 290 291 292 292 292 291 292 293 293 293 292 290 291 292 293 295 296 296 295 296 297 297 295 293 290 289 288 288 288 287 287 287 286 287 286 285 285 284 285 285 285 286 286 286 286 285 285
272 274 276 278 280 281 282 282 283 284 283 283 282 282 281 282 282 281 281 281 280 279 280 280 280 280 281 282 283 284 284 283 283 284 284 286 287 288 288 289 290 289 289 290 291 291 291 291 291 291 291 291 292 293 294 294 294 295 296 295 292 289 289 288 288 288 287 287 287 286 285 286 285 284 284 284 284 284 285 285 285 286 286 285 285
271 273 276 278 278 279 280 281 282 282 283 283 281 280 280 281 280 281 281 281 281 280 280 281 280 280 280 280 281 282 283 283 284 285 285 285 287 287 287 287 288 288 287 288 289 289 289 290 290 290 289 290 290 291 291 291 292 292 292 290 288 289 288 288 288 288 287 287 287 287 284 285 285 285 285 284 284 284 284 284 285 285 285 285 285
271 273 275 276 277 278 278 280 280 281 282 283 281 281 280 280 280 280 281 280 280 280 280 281 281 281 280 281 281 281 283 284 285 285 285 285 285 286 286 286 285 286 286 287 287 287 288 288 288 288 288 288 288 288 287 287 288 288 288 287 287 287 287 287 287 286 285 287 286 285 284 285 284 284 284 284 283 283 284 283 283 282 283 282 283
270 272 273 275 275 276 277 277 278 279 279 280 281 281 281 280 280 279 279 279 279 279 280 280 280 280 280 280 281 281 283 284 284 285 285 285 285 285 285 284 285 285 285 286 286 286 286 286 286 287 287 287 286 286 286 286 286 286 286 286 286 286 286 286 286 286 286 286 285 284 284 284 284 283 282 283 283 284 284 283 282 281 282 282 282
268 270 272 273 274 274 275 276 276 276 277 278 278 278 279 280 279 279 279 278 278 278 279 279 280 280 280 280 281 281 282 283 283 284 284 284 284 284 284 283 283 283 284 284 285 285 285 285 285 285 285 285 285 285 285 285 285 285 285 285 285 285 284 284 283 284 284 284 283 283 282 282 282 282 283 283 283 283 284 283 282 281 282 282 281
267 269 270 272 271 273 273 274 274 275 275 276 277 277 277 278 279 280 280 280 280 279 279 279 279 280 281 280 280 280 280 281 282 284 284 285 285 284 283 283 283 283 284 285 284 285 284 284 284 284 284 284 284 284 284 284 284 284 284 284 284 284 284 284 283 283 283 283 282 282 282 283 282 282 282 282 282 282 283 282 282 282 282 282 280
266 267 269 269 270 270 271 272 272 273 273 274 274 275 278 279 279 279 279 281 281 281 281 279 280 280 279 280 281 280 279 281 284 284 284 285 285 286 286 286 286 285 285 286 285 283 283 282 282 282 282 282 282 282 283 283 283 283 283 284 283 283 283 283 282 282 283 282 282 283 282 282 281 282 282 281 281 282 282 282 281 282 281 281 280
265 266 267 268 269 269 269 270 270 271 272 272 273 273 274 275 278 279 280 279 280 280 280 280 281 281 280 279 280 281 282 282 283 283 283 284 285 285 285 286 286 286 286 284 282 282 281 281 281 282 282 282 281 281 282 282 282 282 282 282 282 282 282 281 281 282 282 282 282 282 282 282 281 282 282 282 281 281 281 281 281 281 281 280 278
264 265 266 267 268 268 269 269 269 269 270 271 271 272 272 272 273 277 278 278 279 280 279 279 279 280 280 280 279 279 280 281 282 282 282 283 283 284 285 285 285 284 285 285 281 281 281 281 281 281 281 281 281 282 282 282 282 282 281 281 281 281 281 281 282 282 281 281 281 281 281 281 281 281 281 280 280 279 279 278 278 278 277 277 276
263 264 265 266 267 267 268 268 268 268 268 269 269 270 270 271 270 271 274 277 278 278 278 278 278 278 278 279 279 279 279 280 280 281 281 281 282 283 283 283 283 282 282 279 279 279 280 280 280 281 281 281 281 281 281 281 281 280 280 279 278 279 279 280 281 280 279 279 279 279 279 279 279 279 278 278 278 277 277 276 276 276 276 276 275
263 264 265 265 266 266 266 267 267 267 268 269 269 269 270 270 271 272 271 272 273 274 275 275 276 276 276 277 277 278 278 278 279 279 279 279 281 282 280 279 280 279 278 274 275 275 276 276 276 276 277 279 279 279 279 279 279 278 278 277 277 278 278 279 278 277 277 278 277 277 277 277 277 276 276 276 276 276 275 275 275 275 274 274 272
263 263 265 265 265 265 266 266 267 267 268 268 268 268 269 270 271 271 271 271 270 269 268 269 272 274 273 273 275 277 277 277 277 277 277 277 278 279 277 273 272 272 271 271 271 271 271 271 272 272 272 273 273 275 276 277 277 277 276 276 276 276 276 276 276 276 276 276 275 275 275 275 275 275 275 274 274 273 273 272 272 273 272 271 271
262 262 263 264 265 265 265 265 266 267 267 267 268 268 269 270 270 270 271 271 269 268 267 267 268 270 272 272 273 275 276 275 275 275 275 275 275 275 270 269 269 269 268 269 268 269 269 268 269 269 270 270 271 271 272 272 273 273 274 274 274 274 274 274 275 274 274 274 274 274 274 273 273 273 273 273 272 272 271 271 271 271 271 270 270
261 262 262 263 264 265 265 265 266 267 267 267 267 267 268 269 269 269 270 268 268 267 266 266 267 267 269 269 270 272 274 273 273 273 272 272 272 269 267 267 267 267 267 267 267 267 267 267 267 267 268 268 268 269 270 270 271 271 272 272 273 273 273 273 273 273 272 272 272 271 272 272 272 272 271 270 270 270 270 270 270 270 270 270 270
261 261 261 263 264 264 264 265 265 266 266 266 266 267 267 267 267 268 269 268 267 266 265 265 266 265 265 266 269 269 269 270 269 269 268 268 265 265 265 265 266 265 265 265 266 266 266 266 266 266 266 267 267 267 268 268 269 269 270 270 270 271 272 271 271 271 271 270 270 270 270 269 270 270 270 269 269 268 268 268 268 268 269 269 269
260 261 262 263 264 264 264 264 264 264 264 265 265 266 266 266 267 267 267 267 265 265 265 264 264 264 265 266 266 268 267 265 264 264 264 264 264 264 263 263 263 264 264 264 264 265 265 265 265 266 266 266 266 266 267 267 268 268 269 268 268 268 269 269 269 269 268 268 268 268 268 268 268 268 268 268 267 267 267 267 268 268 267 267 267
259 259 260 262 262 263 263 264 264 263 264 264 264 265 264 265 265 266 265 265 265 265 265 264 264 264 265 266 266 266 264 264 263 263 263 263 262 263 262 262 262 262 262 262 263 264 264 264 264 264 264 265 265 265 266 266 267 267 267 267 267 267 267 267 267 267 267 267 267 266 266 267 267 267 267 267 267 267 267 267 267 267 267 266 267
258 259 260 261 262 262 263 263 262 262 262 263 263 263 263 263 264 264 265 265 264 264 263 263 263 264 265 265 266 266 263 263 263 262 262 262 262 261 261 261 261 261 261 262 262 263 263 263 263 263 263 264 264 264 265 265 266 266 266 266 266 266 266 266 266 266 266 266 266 266 266 266 266 266 265 266 267 266 266 266 266 266 266 266 266
257 258 259 259 261 261 261 261 261 261 261 261 261 262 262 262 262 262 263 263 263 263 263 262 263 263 264 265 265 265 262 262 262 262 261 261 261 261 261 261 261 261 261 261 261 262 262 262 262 262 262 262 263 263 263 264 264 265 265 265 265 265 265 265 265 265 265 265 265 265 265 265 265 266 266 266 265 265 265 265 265 265 265 265 265
257 257 258 259 259 259 259 259 260 259 260 260 260 262 262 261 260 261 261 261 261 261 261 261 261 262 262 263 263 263 262 261 261 261 261 260 260 260 260 260 261 261 261 261 262 262 262 262 262 262 262 262 262 262 262 262 263 264 264 264 264 264 264 264 264 264 264 264 264 265 265 265 265 265 265 265 265 265 265 264 265 265 265 265 265
256 256 257 258 258 258 258 258 258 258 258 260 260 260 260 259 259 259 260 259 260 259 259 259 260 260 260 260 261 261 260 261 261 260 260 260 260 260 259 260 260 260 260 260 261 261 261 261 261 261 262 262 262 262 263 263 263 263 263 263 264 263 263 263 263 263 264 264 264 264 264 264 264 264 264 264 264 264 264 264 264 264 264 264 265
255 255 256 256 256 256 256 256 257 257 258 258 257 257 258 256 256 258 259 258 259 258 258 258 258 258 258 258 258 259 259 259 260 260 259 259 259 259 259 260 260 260 260 260 260 260 261 260 261 261 261 261 261 262 262 263 263 263 263 263 263 262 263 263 263 264 264 264 263 263 263 263 263 264 264 264 264 264 264 264 264 265 264 264 264
254 254 255 255 255 255 256 255 256 254 254 254 254 254 255 255 255 256 257 257 258 258 257 257 257 258 258 258 258 258 258 259 259 259 259 259 259 259 259 259 260 260 260 260 260 260 260 260 260 260 260 260 261 261 261 262 262 263 263 263 263 263 264 264 264 264 264 263 263 263 263 263 263 264 264 264 264 264 264 264 264 264 264 264 264
253 253 254 254 254 255 255 255 254 255 254 255 254 254 255 255 255 257 257 258 258 257 256 256 256 256 257 257 257 257 258 258 258 258 258 258 258 258 258 259 259 259 259 260 260 260 260 260 260 260 260 260 260 261 261 261 262 262 263 263 264 264 264 264 264 264 264 264 264 263 263 263 263 263 264 264 264 264 264 263 263 263 264 264 264
254 254 253 254 253 253 253 253 254 255 254 254 254 255 256 256 256 256 256 256 256 256 256 256 256 257 257 257 257 257 258 258 258 258 257 257 258 258 258 258 258 258 259 259 259 259 259 259 259 260 260 260 260 260 261 261 261 262 262 262 264 264 264 265 264 264 264 264 264 264 264 263 263 263 263 263 263 263 262 263 263 263 264 264 264
254 254 254 254 253 254 253 253 253 252 252 253 254 255 256 255 255 256 256 256 256 256 255 255 256 256 256 257 257 257 258 258 257 257 256 256 257 257 258 258 258 258 258 258 258 258 258 258 258 259 259 259 260 260 260 261 261 261 262 262 264 265 265 265 265 265 265 265 264 264 264 263 263 262 263 263 263 263 263 263 263 263 263 264 264
253 254 253 254 253 253 254 253 253 251 252 253 254 254 255 255 254 254 255 255 255 255 255 255 255 255 256 256 257 257 257 257 257 257 257 256 256 256 257 257 257 257 257 257 257 258 257 257 257 258 258 258 258 259 259 260 260 261 261 263 265 265 265 265 265 265 265 264 264 263 263 263 263 262 262 262 262 262 262 263 263 264 263 263 262
254 254 253 253 253 253 253 252 253 253 252 253 253 253 254 254 253 254 254 255 255 255 254 253 253 254 255 256 256 256 257 257 257 257 256 255 255 255 255 256 256 256 256 256 257 257 257 257 257 257 257 258 258 258 259 259 259 261 264 265 265 265 265 265 264 264 265 264 263 263 263 263 262 262 262 262 262 262 263 264 263 262 262 262 263
Wind_Speed
4 5 5 5 5 6 7 5 5 4 5 5 6 7 7 7 7 7 5 7 6 6 7 8 8 8 8 8 9 9 10 11 10 10 11 12 12 13 13 12 15 14 13 15 13 13 15 16 16 15 13 13 12 11 11 12 11 11 11 11 12 11 11 12 14 16 9 6 6 7 6 6 4 4 6 7 6 6 7 7 6 7 7 7 7
5 6 5 5 5 6 7 5 4 4 5 5 6 7 7 7 6 4 5 8 5 7 7 7 6 7 7 8 8 9 9 10 9 8 10 11 13 11 12 13 14 15 13 15 15 13 14 15 16 14 12 14 14 13 12 11 12 11 12 11 12 11 11 12 14 13 16 3 7 5 7 7 9 4 7 7 7 4 6 6 5 6 7 6 6
7 5 5 5 6 5 5 6 5 5 5 5 6 7 7 7 5 5 7 7 5 5 7 7 7 6 7 8 8 8 8 8 8 8 10 11 12 12 12 12 14 15 14 16 15 13 14 15 16 14 11 13 14 13 12 12 12 13 13 11 13 12 11 13 12 13 14 11 6 6 7 6 9 6 6 7 7 6 6 6 6 5 4 6 7
8 6 6 6 5 5 6 6 5 5 5 6 7 7 6 6 5 5 6 6 8 8 5 6 6 6 7 8 7 7 8 8 8 8 10 11 12 13 12 12 13 14 15 15 15 13 15 15 16 14 13 14 14 12 12 12 12 12 13 12 12 13 12 12 13 13 12 13 7 8 6 7 6 4 6 6 7 6 6 6 4 5 5 5 6
8 8 6 6 7 5 6 5 5 6 7 6 7 7 7 6 5 6 6 7 7 7 7 5 6 6 8 8 8 8 8 8 9 10 10 10 11 12 12 12 13 14 14 15 14 14 15 16 16 13 13 14 14 13 12 14 13 12 13 11 12 12 10 12 12 12 13 14 10 6 6 8 7 8 8 8 6 6 4 5 7 7 7 4 3
6 7 7 6 7 7 6 5 5 6 7 7 8 7 7 6 6 6 5 7 7 6 7 7 6 7 7 8 7 8 8 7 8 9 10 9 10 11 12 12 13 13 13 14 14 13 14 15 15 13 13 15 15 14 13 15 13 13 14 13 12 11 12 12 12 13 14 15 13 9 5 8 5 5 6 8 8 7 5 4 2 3 5 5 5
7 7 6 5 5 6 6 6 5 5 6 7 7 6 7 6 6 8 6 5 6 7 7 7 7 6 8 7 8 8 8 8 8 9 9 10 10 11 11 12 13 12 12 13 13 13 14 14 14 13 14 15 15 15 14 14 13 15 15 14 12 11 11 11 11 13 13 13 12 11 10 7 9 10 6 8 10 10 10 7 7 3 2 5 6
4 5 5 6 5 7 6 6 6 6 6 6 6 6 6 6 6 6 5 6 7 7 8 8 9 6 7 7 8 8 8 9 9 9 9 9 10 10 11 12 12 12 12 13 12 13 14 14 14 14 15 15 15 15 14 14 13 13 13 11 11 12 12 12 11 12 12 12 12 11 9 9 6 5 1 3 4 5 6 8 11 7 7 6 5
3 4 4 5 6 6 6 6 6 6 6 6 7 8 8 7 6 6 5 6 7 7 7 7 8 9 7 8 9 8 8 10 8 8 8 10 9 10 11 12 12 12 12 13 13 13 13 13 13 13 15 17 19 18 17 15 13 13 13 11 11 12 12 11 11 11 11 12 13 11 10 10 9 10 9 8 11 12 6 7 8 7 7 6 4
5 5 4 5 5 5 6 5 5 5 5 6 7 7 7 7 6 7 7 7 7 7 7 7 6 8 9 9 8 8 9 8 11 14 12 10 10 9 10 10 11 11 12 13 13 13 13 13 13 18 18 19 19 20 20 20 20 17 14 11 12 12 12 12 12 11 12 13 14 11 10 11 8 9 10 10 8 5 6 8 10 5 3 4 2
4 4 4 4 5 6 6 7 6 6 5 6 6 6 7 7 7 7 8 8 8 8 6 8 8 7 8 8 10 10 9 9 14 12 13 15 11 10 11 12 11 11 11 13 13 14 12 13 12 15 15 16 17 20 20 21 21 21 22 20 17 15 13 13 13 13 12 13 13 12 12 14 12 8 9 7 5 9 9 8 10 7 8 7 8
5 5 5 5 5 5 5 5 5 5 6 7 7 7 6 6 6 7 7 9 9 7 8 8 8 8 7 8 9 10 10 13 14 12 13 14 13 10 10 11 12 11 12 13 13 13 13 13 12 12 12 14 14 14 17 20 21 22 23 22 21 21 21 18 14 12 12 12 12 13 12 13 13 9 10 8 9 6 7 7 9 10 9 9 6
5 5 5 5 6 6 6 7 6 5 5 6 7 8 8 8 8 7 8 7 7 9 9 9 9 9 7 9 11 11 10 15 13 12 14 14 13 11 9 11 11 12 12 13 13 13 12 12 13 12 13 18 15 14 14 14 18 22 22 22 23 24 23 24 23 20 15 14 14 13 13 13 11 11 9 10 8 12 9 9 8 8 9 10 8
3 3 4 5 6 7 7 8 8 7 7 7 7 7 7 8 8 6 7 7 7 8 8 9 9 9 8 8 10 11 12 15 13 12 14 14 12 10 9 11 11 12 13 13 13 13 13 13 12 13 13 12 11 13 14 14 12 12 14 14 15 19 22 24 26 26 21 15 14 15 14 7 11 8 9 11 11 13 10 11 8 8 9 11 6
4 4 4 4 5 7 8 7 8 8 7 8 8 8 7 7 7 7 7 8 9 10 10 10 10 9 9 8 8 12 13 16 12 13 14 14 13 11 9 10 10 11 12 13 13 13 14 13 13 14 14 13 12 14 12 12 12 11 12 14 15 15 14 14 15 14 14 14 16 18 18 13 14 9 8 10 14 14 14 15 16 13 5 4 6
8 9 8 9 9 8 9 10 9 8 9 8 8 9 8 7 9 8 7 8 7 7 8 7 9 11 9 8 8 12 14 16 12 13 15 14 14 9 8 9 10 11 12 12 12 12 13 13 13 14 15 15 16 18 16 13 12 13 14 13 13 13 14 16 18 15 14 15 16 15 11 7 11 10 10 12 9 4 7 6 7 5 6 5 6
9 9 9 9 10 10 10 10 11 9 9 10 10 9 9 10 8 5 8 8 8 8 8 9 9 9 11 10 9 12 14 16 11 12 15 14 10 8 8 8 9 11 12 12 10 11 12 13 13 13 14 14 16 17 16 17 12 14 14 14 13 12 13 12 12 16 16 14 15 16 15 11 12 13 14 16 12 11 8 7 7 7 7 7 4
7 8 8 8 8 9 9 9 10 9 9 9 10 10 9 8 7 5 7 10 10 9 8 9 9 7 8 10 9 10 14 16 13 12 16 14 10 9 7 7 10 11 11 11 10 11 13 17 15 14 15 15 16 13 15 15 13 14 13 13 12 12 12 6 5 3 1 3 3 7 10 11 11 13 15 17 18 16 13 13 11 10 9 8 8
8 8 8 8 8 8 9 9 9 9 9 9 9 10 9 9 9 7 7 7 9 8 7 8 10 8 6 8 11 11 11 14 15 12 16 16 10 7 7 7 10 11 10 10 10 10 12 12 16 15 15 16 19 15 15 15 13 14 13 12 13 15 15 7 8 6 4 2 2 3 1 5 7 8 10 16 17 13 7 8 10 10 9 7 6
9 9 8 8 8 7 7 8 8 9 9 9 8 8 8 8 8 9 9 7 9 8 7 7 9 10 6 6 8 7 9 11 12 12 14 16 13 9 7 9 10 11 9 10 11 11 10 11 12 14 15 16 16 16 15 18 15 14 12 13 14 18 8 7 10 10 9 10 8 7 7 5 3 2 6 10 8 4 5 7 10 9 8 7 8
10 10 9 8 8 8 7 7 8 8 7 8 8 8 8 8 8 8 8 8 8 9 9 8 8 9 7 6 7 7 7 10 12 11 11 13 13 11 9 10 9 9 10 10 10 11 11 10 8 11 14 15 16 16 15 16 18 15 13 13 14 11 5 8 12 14 11 8 7 5 5 3 4 6 6 2 4 6 7 6 7 8 9 9 8
11 10 10 8 9 9 8 7 7 7 6 7 7 8 8 8 8 8 7 8 9 9 9 9 9 10 10 7 6 8 8 9 9 9 8 11 12 14 11 10 10 10 11 11 11 11 11 10 9 10 14 16 18 19 19 17 17 12 13 16 14 11 7 6 7 7 6 5 6 7 7 7 6 3 4 6 5 3 5 6 6 7 6 7 9
11 10 9 8 8 8 7 9 8 6 6 7 7 7 7 7 8 8 8 8 9 9 9 9 9 10 10 8 7 8 8 7 7 7 8 11 13 14 14 13 13 11 11 13 13 11 9 9 9 11 12 15 18 20 20 22 18 16 21 20 13 11 9 6 7 8 8 8 7 7 7 8 9 9 8 6 4 5 5 6 7 7 6 5 4
12 10 9 8 8 8 8 8 7 6 5 6 6 7 8 8 6 6 6 8 8 8 8 9 9 10 11 11 9 8 7 7 8 10 9 12 14 15 16 18 18 11 10 11 11 10 10 10 10 13 15 16 18 20 21 20 14 18 20 16 12 11 8 7 8 9 8 8 9 9 9 7 5 10 9 7 7 6 6 6 7 7 7 5 4
11 10 10 9 8 8 8 7 7 7 6 4 5 6 7 7 7 7 6 7 8 8 8 10 10 9 9 10 11 10 8 7 7 8 11 11 14 15 17 18 19 19 12 10 10 10 12 16 17 15 15 15 16 15 13 13 14 11 12 11 11 7 7 8 9 9 10 11 12 10 11 10 11 9 8 8 8 7 7 7 7 7 7 7 5
11 11 10 9 9 8 9 7 8 7 8 5 4 4 4 6 6 6 6 7 7 8 8 8 9 10 10 9 9 10 10 7 8 8 8 9 10 13 15 14 14 15 15 13 15 16 16 15 14 13 11 9 7 4 4 3 6 8 9 9 4 3 3 5 6 8 12 10 9 11 11 7 7 6 7 8 8 9 9 10 10 8 8 8 7
10 10 11 9 9 8 10 7 8 7 7 7 6 5 4 4 4 5 5 6 7 8 8 8 8 8 9 10 9 10 9 8 8 8 8 8 8 9 9 9 11 11 9 8 7 7 7 6 4 4 3 2 3 3 2 3 4 4 4 4 3 3 3 2 3 4 6 5 6 5 6 5 5 6 7 8 8 7 8 10 10 9 9 6 7
9 10 11 9 8 9 9 12 11 7 7 7 6 6 6 5 4 4 5 5 6 7 7 8 8 9 8 9 9 9 8 8 8 9 9 9 9 9 8 8 7 6 7 7 5 5 4 4 4 3 2 2 2 2 2 3 2 2 2 1 3 3 4 5 5 4 3 4 5 5 5 5 5 5 5 5 6 5 6 6 7 7 7 7 6
9 9 9 8 8 9 8 8 8 8 8 8 6 5 6 7 6 4 2 2 5 5 5 5 8 9 8 8 8 8 8 9 10 13 13 15 12 9 8 8 7 6 7 9 5 4 3 3 3 3 2 1 1 1 2 3 3 3 4 3 3 3 3 3 5 5 5 7 8 8 8 8 7 6 6 5 4 4 3 5 4 6 6 5 5
9 8 8 8 8 9 8 8 8 8 8 8 10 10 7 9 8 6 5 6 9 11 10 7 7 7 7 7 8 9 9 10 17 19 18 18 19 18 16 15 13 8 8 9 6 4 3 2 3 2 2 2 1 1 1 2 3 3 3 4 3 3 3 3 3 3 4 5 6 7 8 8 8 8 8 7 6 4 3 4 4 5 5 5 5
8 8 8 7 9 9 8 8 7 7 7 8 8 9 11 9 9 12 10 9 9 10 12 14 16 15 11 7 9 14 16 18 19 18 18 17 18 17 17 18 17 14 12 7 4 4 4 3 2 2 2 2 2 1 2 3 3 3 3 3 3 3 3 4 3 4 3 3 3 4 5 6 7 7 9 10 10 9 7 6 5 5 5 5 6
7 8 8 8 9 9 8 8 9 8 8 7 7 8 8 10 10 7 12 14 11 10 12 14 16 15 16 14 11 7 13 17 19 18 17 17 16 16 15 15 18 18 15 10 5 5 4 3 2 2 2 2 2 2 2 3 3 3 3 3 4 4 4 3 3 4 4 4 3 3 4 4 4 5 5 5 6 6 6 6 6 6 6 5 5
8 8 8 8 8 9 8 8 8 8 8 8 8 7 7 7 9 12 10 10 11 10 12 15 16 16 16 17 18 15 15 17 19 19 19 18 16 14 13 13 17 19 14 8 6 6 6 5 5 4 3 2 2 2 2 3 3 3 4 3 4 4 5 5 6 6 6 6 6 5 5 5 5 5 5 4 5 5 5 5 5 6 6 6 5
9 8 8 9 9 8 8 8 8 8 8 7 7 7 6 6 7 7 9 10 8 8 10 15 16 17 16 17 19 18 18 18 19 19 19 19 17 13 12 8 13 18 14 7 7 7 7 7 7 8 7 6 5 4 3 3 3 4 4 4 4 5 5 6 7 6 6 6 6 5 5 5 5 5 5 5 5 5 5 5 5 5 5 5 6
7 9 13 11 7 8 7 8 8 8 8 7 7 7 7 7 6 6 7 7 7 8 8 9 12 15 13 13 18 19 18 18 19 19 21 20 20 13 12 10 9 8 10 8 7 7 7 7 7 7 7 7 7 7 6 6 5 5 4 4 4 4 5 6 7 7 6 6 6 5 4 4 4 4 4 5 5 5 5 5 4 4 5 5 5
7 7 8 9 8 7 7 7 7 7 7 7 7 7 8 7 6 5 5 5 6 6 7 8 8 9 14 16 22 20 19 18 18 19 20 21 19 16 9 7 7 6 6 6 6 6 6 6 6 7 7 7 7 7 6 6 6 6 6 6 6 6 6 6 5 5 6 7 6 5 5 5 4 4 5 5 5 5 4 5 5 5 5 4 3
6 7 7 7 8 7 7 7 7 7 8 8 7 7 7 6 6 5 5 5 5 5 5 7 9 10 10 9 16 17 19 16 15 16 19 19 20 12 8 7 6 6 7 7 7 6 6 6 6 6 7 6 6 6 6 6 6 6 7 7 6 6 6 6 6 6 6 6 6 5 5 4 4 4 4 5 4 4 4 5 5 5 4 4 4
6 6 7 8 8 8 7 7 7 10 7 6 6 6 6 6 6 6 5 4 5 5 6 7 8 7 8 10 15 11 11 12 13 12 14 15 13 10 8 8 8 7 7 7 7 7 6 6 6 6 6 5 5 6 6 6 6 5 6 6 7 7 10 8 9 8 7 6 6 6 6 7 7 5 6 7 5 4 4 4 4 4 4 4 3
6 10 13 14 10 7 6 7 7 7 7 7 7 7 8 7 6 5 6 4 4 5 5 5 5 6 7 8 9 10 11 9 9 9 8 8 7 7 7 7 7 7 7 7 7 7 7 7 7 6 6 6 6 5 5 5 6 6 6 6 6 6 7 6 6 6 6 6 5 6 6 6 7 7 6 5 5 4 4 5 4 4 3 3 3
6 6 8 13 8 8 7 7 7 7 7 7 7 6 7 7 6 6 5 5 5 5 5 6 6 6 7 8 8 8 7 7 7 7 7 7 7 7 7 7 7 7 7 7 7 7 7 6 6 6 7 6 6 6 6 5 5 5 4 4 5 5 5 5 5 5 5 5 5 5 6 6 5 6 6 6 5 4 4 4 4 4 3 3 3
6 6 7 7 9 7 6 6 6 6 6 7 6 6 6 7 7 7 6 5 5 5 5 6 5 6 6 9 14 12 6 6 6 6 7 6 7 7 7 7 7 6 7 6 6 6 6 6 6 7 6 6 6 6 6 5 5 5 5 5 5 5 5 6 5 5 5 5 5 5 5 5 5 5 5 4 5 4 4 4 4 4 3 2 2
6 5 6 6 7 6 5 6 6 7 6 6 6 6 7 7 6 6 7 6 6 6 6 5 5 6 9 14 12 12 7 5 5 6 6 6 6 6 6 6 6 6 5 6 6 6 6 6 6 6 6 7 7 7 6 6 5 5 5 5 5 5 6 5 5 6 6 5 5 5 5 5 4 4 5 5 4 4 4 3 3 2 2 2 2
6 5 5 6 5 5 6 5 6 6 6 5 5 6 6 6 6 6 6 6 6 6 6 6 6 7 7 12 11 10 5 5 5 5 5 5 5 6 6 5 5 5 5 5 5 5 5 5 5 5 5 6 6 6 5 5 5 5 5 5 5 6 6 5 5 6 5 5 5 5 5 5 4 4 4 4 4 3 3 3 2 2 2 2 2
5 5 6 5 5 5 5 5 5 5 5 6 6 6 6 5 5 5 5 5 5 5 5 6 6 6 6 8 8 6 6 5 4 4 5 5 5 5 5 5 5 5 5 5 5 5 5 5 5 5 5 5 5 6 5 5 5 5 5 4 5 6 6 5 5 4 4 4 4 4 4 4 4 4 4 3 3 3 2 3 2 2 2 2 2
5 5 5 5 5 5 5 5 5 5 6 6 5 5 6 4 5 5 4 4 5 5 5 5 5 5 6 6 6 6 6 5 5 5 4 4 4 5 5 5 5 5 5 5 5 5 5 5 5 5 6 5 6 5 5 5 5 4 4 5 5 5 5 4 3 3 3 4 4 4 3 3 3 2 2 2 2 2 2 2 2 2 2 2 2
5 5 6 5 5 6 6 5 6 5 5 5 5 5 5 5 5 4 6 5 5 4 5 5 5 5 5 5 5 6 6 5 5 5 5 5 5 4 5 5 5 5 5 5 5 6 5 5 5 5 5 5 5 5 5 5 5 5 5 4 4 4 4 4 3 3 4 3 3 2 2 3 3 3 3 2 1 1 1 2 2 1 1 2 2
5 4 5 5 5 6 6 6 5 5 5 5 5 5 5 5 5 5 6 6 6 5 5 5 4 5 4 4 4 5 5 5 5 5 5 5 5 4 5 5 5 5 5 5 5 5 5 5 5 5 4 4 4 4 4 4 3 3 3 3 4 4 4 3 3 2 2 2 2 2 2 2 2 2 3 3 3 2 2 2 2 2 2 2 2
5 5 5 5 4 5 5 5 5 5 5 5 5 5 5 5 5 5 5 5 5 5 5 5 4 5 5 5 4 4 4 4 4 5 5 5 5 4 5 5 5 4 4 5 5 5 5 5 5 4 4 4 4 3 3 3 3 3 3 3 3 4 5 5 2 2 2 2 2 2 2 2 2 2 2 2 2 2 2 2 2 2 1 1 2
5 5 5 5 5 5 5 5 5 5 5 5 5 5 5 4 4 4 4 4 4 4 4 5 5 5 5 5 5 5 4 5 4 4 4 5 5 5 5 5 5 4 4 4 4 5 5 5 5 4 4 4 3 3 3 3 3 3 4 4 4 8 7 7 4 4 4 3 3 3 2 2 2 1 2 2 2 2 1 1 1 1 1 2 1
5 5 4 4 4 5 5 4 4 4 5 5 4 4 4 4 4 4 4 5 4 4 4 4 4 5 5 5 5 5 5 5 4 5 5 5 5 5 5 5 5 5 5 5 5 4 4 4 4 4 4 4 4 4 4 3 3 4 4 3 7 8 7 8 8 7 4 3 3 3 2 2 2 2 2 2 2 2 2 1 1 2 1 2 2
5 5 4 4 4 4 4 4 4 4 4 5 5 4 4 5 5 4 4 4 5 5 5 5 5 4 4 4 5 4 4 4 4 4 5 5 5 5 5 5 6 5 5 5 5 5 5 5 4 5 4 5 4 4 4 4 4 3 5 9 8 8 9 7 5 6 7 4 3 3 3 3 3 3 3 2 2 2 3 3 2 2 2 2 3
Wind_Direction
285 268 272 270 263 271 272 275 270 267 270 256 252 257 259 255 255 254 280 263 256 256 247 247 247 245 247 242 241 241 241 242 235 233 232 234 234 234 234 227 231 235 234 236 232 232 234 237 238 235 232 232 234 230 228 226 223 224 222 223 226 221 220 230 244 261 251 199 210 217 212 190 247 205 263 275 270 246 228 225 204 190 195 195 194
267 262 261 258 257 261 266 274 264 267 263 266 260 263 265 263 260 276 259 268 264 261 259 259 257 257 255 256 251 249 249 250 247 240 239 238 239 235 236 232 234 237 234 238 235 232 236 238 240 237 230 233 235 231 229 225 224 222 222 219 224 223 212 225 240 248 264 197 233 210 226 196 242 184 231 251 258 236 225 221 210 197 188 182 175
283 273 270 268 262 263 277 277 274 271 268 272 270 268 269 273 274 269 269 272 273 258 265 266 266 262 259 259 260 259 256 256 253 246 246 244 244 241 236 234 234 236 235 237 236 232 235 236 239 236 230 233 234 231 228 227 224 224 225 218 224 223 216 218 232 246 253 255 205 221 210 210 219 222 213 229 235 213 217 219 209 208 199 178 182
282 285 280 277 275 282 273 273 287 285 280 268 267 269 271 275 281 274 270 277 279 273 259 266 270 266 264 264 259 260 260 257 257 249 250 249 249 248 243 238 237 237 237 238 237 232 234 237 238 233 230 234 234 230 228 225 225 225 227 223 223 227 222 221 225 239 248 258 223 210 210 209 232 219 206 212 221 234 224 219 210 199 185 188 185
289 288 288 288 287 276 275 278 280 278 271 275 273 276 277 279 280 268 276 275 269 279 282 263 264 264 261 261 262 259 256 258 259 258 255 254 254 254 250 245 241 240 239 239 237 234 235 235 239 231 227 232 235 230 227 225 226 224 228 224 224 228 225 224 227 228 240 244 246 208 205 213 213 212 204 214 234 233 249 225 205 199 195 188 171
302 304 295 289 285 289 291 302 286 280 281 281 276 280 288 287 285 282 261 270 280 277 276 280 261 266 261 263 262 264 266 261 259 261 263 261 258 256 256 252 249 246 243 242 239 235 236 238 237 231 227 228 233 230 228 227 226 227 230 229 226 225 226 227 224 228 232 239 241 237 206 213 232 231 206 204 215 224 236 244 286 229 180 182 208
304 303 305 312 315 313 310 298 286 281 277 275 283 288 283 280 279 275 279 277 280 283 280 277 272 259 266 266 267 266 271 269 266 265 264 263 260 259 257 256 254 252 249 246 243 240 238 239 238 231 229 229 231 231 228 229 227 229 230 231 227 224 226 227 224 228 230 237 239 234 230 216 211 221 213 204 207 203 209 211 230 237 268 198 211
309 317 328 327 318 303 300 300 302 296 296 299 294 286 283 283 278 279 293 286 277 274 277 279 279 270 267 266 263 265 265 268 264 261 260 258 258 257 256 257 256 254 252 249 245 243 241 240 238 234 231 231 231 233 228 230 228 232 232 227 225 222 225 226 224 225 230 234 238 236 222 215 214 228 85 161 225 256 223 202 217 209 225 221 220
338 352 343 329 308 303 306 312 312 313 312 308 304 300 297 292 291 290 286 279 273 269 269 270 276 281 275 266 268 265 263 263 262 258 262 264 258 259 258 254 252 254 255 253 249 246 245 243 241 239 234 235 234 231 230 225 225 231 231 220 221 223 224 227 225 225 229 234 239 234 226 225 219 202 197 193 204 220 196 194 223 208 194 197 246
360 2 0 335 321 319 316 314 314 314 314 311 304 302 300 302 302 299 290 280 278 276 277 275 270 271 276 276 271 268 262 261 260 258 257 264 271 269 268 263 259 255 253 254 253 248 246 246 245 242 239 236 236 235 234 231 226 226 228 216 218 222 225 229 228 229 229 230 234 228 224 231 217 209 212 216 204 193 174 193 213 187 116 205 290
356 360 343 330 336 337 339 337 333 337 325 316 317 319 319 319 315 308 303 299 295 294 292 286 275 264 265 271 276 271 266 262 262 263 264 260 260 268 270 271 267 262 259 256 257 255 250 247 248 245 241 240 240 237 234 232 230 230 230 222 213 213 223 228 231 228 226 231 232 225 227 233 221 189 210 201 190 201 202 189 206 173 192 190 221
348 356 1 6 360 348 335 325 330 331 334 333 328 323 323 325 321 313 310 307 302 304 296 282 283 278 273 271 269 270 271 267 265 268 267 265 261 261 266 267 268 267 264 261 259 259 256 253 249 247 243 239 239 238 236 235 233 230 229 227 224 219 215 215 224 231 229 234 232 229 229 232 234 204 211 184 205 202 217 193 196 187 195 209 204
7 14 2 355 344 334 329 329 326 332 336 329 324 328 330 328 325 323 311 300 302 298 290 294 287 284 279 278 277 276 274 274 275 268 264 264 265 261 265 265 265 267 265 265 264 261 259 256 256 250 248 241 236 238 239 234 231 231 231 230 227 224 223 224 223 223 221 226 238 241 229 230 227 223 196 195 177 202 199 203 203 200 202 203 207
56 8 349 347 340 335 333 334 334 334 334 333 331 332 332 325 318 314 306 304 295 291 290 286 286 285 280 277 280 280 277 276 279 276 272 270 267 262 260 264 265 265 266 265 265 266 263 260 257 256 251 246 237 235 234 236 233 225 231 233 235 236 234 228 226 227 225 225 227 234 235 214 238 226 184 177 180 204 189 210 194 196 201 208 187
16 2 352 345 343 339 337 335 333 333 334 332 332 332 330 322 321 320 312 303 302 299 296 298 293 290 287 280 277 280 277 279 282 276 274 272 270 264 262 265 266 266 265 264 264 264 265 265 262 259 258 250 238 233 231 231 231 227 225 227 229 230 227 232 235 233 231 237 238 237 239 213 219 207 190 194 199 204 196 201 193 193 159 73 68
1 356 354 352 351 346 341 336 334 335 335 336 336 332 328 322 318 317 307 301 295 292 291 283 286 290 288 284 281 281 283 283 279 276 271 270 269 265 260 261 264 266 266 265 264 265 267 265 264 263 260 258 249 234 224 226 226 227 228 228 230 229 232 227 219 227 237 229 228 239 248 230 214 210 193 191 193 132 88 71 87 104 141 161 189
1 356 353 347 345 341 336 333 334 333 335 335 333 329 324 318 315 310 304 301 298 298 292 289 286 289 292 290 284 283 285 287 290 274 272 268 266 260 260 260 262 264 265 268 267 267 264 261 263 267 265 263 256 239 221 215 226 228 231 232 231 232 237 236 221 214 216 241 262 257 246 238 220 206 190 182 172 153 131 133 166 153 155 188 194
354 348 342 338 331 329 328 327 327 328 332 330 323 318 315 306 303 300 297 301 298 294 295 294 287 279 281 286 279 279 284 290 296 287 279 273 254 257 256 258 263 264 269 269 268 267 265 263 260 261 265 266 270 249 222 209 221 226 229 231 234 236 241 207 168 250 263 162 211 248 238 215 203 193 188 181 168 160 161 187 180 162 183 191 201
345 337 330 325 321 317 320 321 323 322 323 319 315 312 310 309 307 306 293 286 285 292 292 289 291 287 271 271 277 273 279 288 293 286 279 278 266 255 255 253 262 264 269 275 270 264 269 268 261 259 260 266 270 261 229 209 220 223 225 225 232 235 236 178 185 192 195 171 137 123 125 188 184 179 180 174 170 182 192 166 144 167 176 187 162
331 328 322 317 310 309 310 317 316 315 314 312 312 307 304 306 306 306 305 299 297 297 292 287 288 291 289 277 280 274 280 284 285 283 279 279 269 256 251 250 257 267 267 269 276 270 263 266 264 259 264 269 271 265 244 216 221 227 222 222 225 238 215 162 198 198 202 204 199 184 173 146 116 139 160 155 154 135 135 150 163 164 169 164 169
326 321 318 315 311 308 310 311 308 305 305 309 310 310 308 308 310 313 309 309 306 305 306 301 295 293 292 283 281 284 270 279 289 292 291 286 278 258 256 253 258 262 267 266 261 269 271 262 263 251 245 254 259 261 254 235 226 228 224 225 223 235 168 193 204 194 195 188 164 148 139 136 143 142 130 108 133 129 125 134 148 154 152 159 162
323 321 318 313 320 322 317 317 315 315 320 324 322 315 313 315 318 317 318 317 314 308 308 311 310 308 308 303 293 290 283 276 290 306 303 293 288 269 260 261 255 262 266 264 264 264 265 271 266 255 244 242 247 247 245 241 237 240 240 237 240 237 197 194 177 180 175 154 159 157 157 152 141 136 134 141 137 119 114 124 128 121 121 139 158
320 314 314 318 321 323 333 334 328 326 331 328 321 316 314 323 322 325 327 326 323 320 318 320 317 312 309 309 308 302 303 310 308 307 311 313 307 303 288 278 270 263 263 267 268 268 273 273 273 272 260 252 251 251 247 242 235 232 238 244 235 185 160 161 159 165 169 170 166 178 181 172 160 160 159 144 138 127 122 115 106 106 98 92 98
320 316 313 325 337 337 337 332 326 324 326 332 334 334 335 325 317 323 325 330 328 327 332 329 325 321 321 319 316 315 320 323 314 315 319 319 320 317 315 310 305 291 277 275 281 280 280 279 276 270 260 252 251 252 252 248 241 238 237 225 188 168 165 161 168 175 173 172 178 176 174 184 175 94 142 143 143 134 126 122 118 116 119 108 108
319 316 322 331 334 333 334 329 334 332 323 331 342 334 335 332 337 332 328 339 338 336 329 331 328 323 324 324 324 326 327 321 314 317 316 314 313 314 314 312 306 303 296 283 279 280 277 276 272 264 256 253 252 252 251 246 235 232 216 190 173 172 178 179 179 174 181 190 192 185 145 171 172 163 143 139 139 134 126 122 122 121 122 130 138
318 317 324 328 328 330 335 335 336 332 332 328 323 314 324 335 334 329 338 343 343 338 335 340 341 336 328 320 326 325 324 319 320 319 317 315 312 312 310 306 300 294 288 282 284 287 284 278 270 264 255 247 238 222 215 215 187 174 164 157 163 180 182 180 177 186 190 189 183 178 167 158 155 153 144 141 145 150 149 146 140 132 131 132 145
316 317 324 326 328 331 338 338 334 329 333 332 325 319 313 318 333 334 341 345 344 342 342 339 339 342 337 334 326 331 326 329 328 326 327 324 321 316 318 314 310 307 300 297 303 301 301 303 298 299 320 339 18 35 71 110 120 125 140 144 134 144 179 207 211 203 189 170 167 143 142 130 122 128 150 150 140 151 154 144 130 132 131 142 148
322 319 322 326 328 332 333 332 333 328 329 331 331 328 324 318 316 331 340 346 343 345 347 346 347 345 340 336 337 343 346 344 341 338 336 327 319 318 312 312 315 310 306 303 308 313 319 331 351 3 11 31 25 32 26 27 37 49 58 91 117 115 106 96 77 83 88 96 88 100 99 112 124 128 126 134 138 137 145 145 152 146 140 142 143
323 324 325 330 330 333 330 329 331 331 328 328 323 316 315 323 318 311 310 336 344 341 341 349 351 346 342 342 343 346 346 348 346 352 347 343 335 325 319 319 318 311 303 299 303 320 334 338 339 356 9 26 67 110 81 81 70 58 62 47 40 61 87 122 137 136 142 140 146 146 145 136 130 123 119 111 107 114 125 128 131 134 133 126 134
326 330 333 333 333 332 332 334 333 333 331 331 330 323 326 331 327 330 320 346 357 7 14 6 1 356 354 352 351 352 349 345 354 355 352 349 350 349 345 337 328 319 317 326 329 327 329 336 339 343 348 22 34 54 77 89 100 86 72 65 67 68 55 59 74 109 121 139 144 141 141 137 137 137 131 130 120 120 126 128 125 127 129 139 140
329 330 333 336 333 330 328 329 329 326 329 332 332 330 324 334 339 336 344 342 346 6 13 14 12 12 10 356 352 359 359 357 357 355 357 356 352 350 352 356 352 340 330 329 330 330 318 342 338 355 355 16 39 55 77 97 80 73 63 62 68 79 83 91 94 101 111 118 117 121 129 139 147 147 149 150 150 148 140 131 127 132 138 135 128
329 328 328 328 329 329 324 325 327 329 330 331 336 332 332 325 327 341 343 341 343 355 10 13 11 9 8 8 5 350 358 359 359 358 355 355 356 356 356 359 9 5 353 354 341 325 328 327 337 354 3 32 23 39 53 68 55 64 71 75 58 54 63 56 48 75 76 77 83 94 104 118 119 117 115 118 119 119 121 120 123 124 115 108 120
329 325 325 327 329 328 326 328 330 331 329 332 332 335 330 332 329 325 336 340 336 347 6 12 9 4 3 4 5 5 3 3 3 2 358 357 356 2 4 13 21 16 13 22 359 351 342 342 347 345 2 22 36 54 26 28 45 62 72 73 59 55 59 49 60 64 64 64 60 49 43 49 58 70 72 82 98 105 99 99 93 98 111 112 102
328 326 326 328 329 328 331 329 331 328 327 325 327 326 323 319 315 317 323 330 342 350 360 3 2 2 1 2 2 3 5 6 6 7 6 3 359 8 25 14 24 28 35 24 12 7 3 8 5 3 359 2 4 15 38 41 48 59 63 63 75 78 68 67 69 62 57 57 68 68 75 78 88 98 89 76 77 90 91 93 100 111 108 116 116
334 327 327 330 329 327 328 327 325 326 326 326 322 324 317 317 321 327 330 334 339 342 340 343 350 355 358 359 0 2 7 9 13 12 13 12 8 6 37 26 17 3 20 18 18 15 9 8 5 1 1 7 6 6 10 14 24 34 45 48 49 58 73 83 89 88 81 69 60 50 46 57 55 70 99 112 109 102 107 101 89 96 107 103 108
330 330 327 326 328 327 325 322 322 321 323 320 322 320 316 318 324 326 337 344 345 338 336 340 338 337 351 360 1 359 4 12 17 20 22 21 18 23 40 19 20 12 14 10 12 13 19 13 11 6 4 8 7 12 8 13 14 16 16 24 33 37 38 41 50 69 85 94 96 89 77 61 57 68 69 70 80 90 88 88 91 85 88 92 96
331 325 322 321 325 324 324 322 320 323 327 323 320 315 317 322 324 325 340 355 349 348 345 338 343 347 356 3 357 350 354 5 13 26 29 29 28 31 31 21 14 5 14 5 6 7 14 15 9 9 14 13 11 5 10 18 15 18 24 22 21 33 35 45 49 56 58 61 55 44 59 64 65 70 95 99 82 75 71 72 80 73 73 90 93
328 323 315 319 324 325 326 325 326 330 324 318 320 319 321 322 330 331 333 4 359 354 354 356 0 356 351 346 348 350 343 347 356 17 19 19 20 17 15 13 15 17 9 2 5 3 3 2 4 6 357 5 14 15 21 17 14 22 31 25 25 30 40 44 52 58 64 68 53 47 50 39 23 43 44 54 53 61 64 62 61 83 93 96 92
329 326 326 330 334 330 323 327 332 334 330 331 328 333 332 335 337 342 341 346 352 352 353 350 355 357 352 349 346 349 352 5 9 8 5 10 12 13 12 16 13 12 9 3 2 7 8 4 1 360 1 4 8 8 12 19 27 36 36 46 46 45 41 35 38 36 39 37 43 53 54 53 42 39 37 50 51 50 64 70 69 80 89 80 78
327 322 325 332 331 334 333 329 333 330 332 333 331 337 334 337 340 339 342 345 345 351 345 353 355 356 350 359 356 359 6 3 2 357 0 2 8 8 16 16 16 10 6 2 0 2 7 3 3 360 2 359 4 8 10 15 17 23 13 53 72 63 55 54 48 50 48 42 42 42 46 55 52 58 57 54 61 62 69 67 67 64 69 76 76
326 321 322 325 333 330 328 334 332 332 331 335 332 333 336 340 341 339 337 345 344 345 346 347 349 350 352 5 11 18 19 4 1 1 3 3 4 8 12 14 11 7 6 3 1 359 9 8 6 4 3 1 359 6 7 10 11 17 32 34 42 50 59 63 61 58 61 61 60 58 53 56 49 58 61 60 69 67 63 61 68 73 71 79 82
324 318 322 322 330 329 333 336 331 331 328 336 341 340 344 344 342 339 340 344 348 349 344 344 342 346 350 3 10 21 28 13 10 6 5 6 3 3 7 7 9 6 1 358 356 355 2 10 12 13 8 5 5 6 7 7 9 12 18 30 39 40 44 37 38 41 47 54 53 61 72 71 71 71 78 80 68 65 66 68 67 63 48 52 51
323 316 317 319 326 329 332 328 328 327 334 339 341 344 352 351 344 344 344 347 352 352 348 346 343 347 351 356 3 12 18 18 25 16 10 7 359 358 358 2 3 358 359 356 358 353 354 7 17 18 12 6 4 7 7 2 358 2 14 30 42 43 47 44 38 39 38 47 53 59 60 60 63 70 68 62 67 70 68 65 59 50 45 20 23
318 318 316 321 322 323 322 330 329 334 329 338 345 343 349 341 336 340 351 352 352 355 350 345 343 346 345 349 355 2 3 5 14 20 15 9 2 358 354 350 355 355 356 357 358 1 5 8 16 18 16 11 3 5 7 6 4 8 10 20 49 54 50 50 47 34 34 44 47 43 43 52 56 59 62 60 62 68 67 64 55 43 48 35 45
318 322 321 321 326 328 327 331 328 335 340 341 339 335 339 341 341 336 346 349 351 353 344 345 344 344 346 347 350 352 353 356 5 11 11 8 3 358 353 347 351 358 359 359 359 1 10 10 11 17 20 12 6 3 5 1 9 10 11 29 38 50 48 43 42 39 40 50 49 48 45 45 43 47 52 52 52 53 45 45 42 40 45 43 43
323 319 320 322 323 327 332 331 334 339 346 338 338 333 334 339 338 341 340 343 346 347 343 342 340 344 347 344 344 347 346 350 352 3 2 1 2 359 355 353 353 358 4 2 358 4 8 11 10 10 16 12 5 4 12 6 359 10 18 15 31 34 40 39 40 46 48 45 47 46 43 39 33 30 26 40 25 42 55 41 43 33 28 9 9
321 316 319 319 321 324 327 333 333 337 346 338 336 334 336 338 336 342 341 348 350 344 343 337 341 340 341 338 344 340 343 344 350 357 359 358 356 352 355 357 1 1 2 6 5 2 6 8 10 10 5 10 3 3 11 10 359 360 1 19 39 40 42 35 32 33 37 42 49 75 46 47 21 0 9 33 39 27 32 24 19 16 15 359 347
318 320 317 318 319 325 327 333 337 341 338 333 330 330 330 338 338 341 340 341 341 342 339 336 337 338 338 336 340 335 339 349 353 355 353 351 353 355 357 353 0 0 3 7 12 8 9 4 360 0 358 1 11 3 1 7 352 353 359 359 9 51 33 29 22 19 17 36 33 35 33 39 30 25 15 24 0 2 11 354 10 349 338 332 315
314 317 321 321 322 328 329 332 333 335 328 326 328 329 329 343 334 332 325 336 338 336 338 337 337 338 338 332 336 336 342 348 353 355 355 351 351 352 349 348 356 5 8 3 4 7 7 5 2 360 359 352 349 356 356 0 5 346 352 322 14 38 20 19 20 36 50 45 35 34 29 27 20 10 3 5 348 348 324 321 315 324 326 311 300
305 305 308 314 315 316 322 322 320 321 323 327 327 326 331 331 330 331 331 332 334 335 334 336 334 331 332 334 338 338 341 343 350 357 356 357 353 346 345 349 355 0 1 359 358 358 360 359 1 1 358 354 354 351 358 345 336 349 291 337 18 13 25 48 46 41 39 27 30 19 23 8 18 15 7 348 338 336 320 293 289 293 304 295 289
306 306 304 302 303 309 317 319 322 324 327 323 330 323 323 328 323 321 322 327 331 329 330 327 326 328 334 332 332 330 333 342 351 0 355 350 348 348 350 351 349 350 355 353 349 354 357 358 358 358 353 353 351 352 342 343 317 315 22 26 18 37 46 36 30 27 22 11 8 1 3 358 6 5 359 359 338 332 331 343 336 324 304 291 282